Flag for U.S.A. Weather past 2 weeks in Flint, Michigan, U.S.A.

Now
58 °F

Scattered clouds.


Feels Like: 55 °F
Forecast: 33 / 57 °F
Wind: 12 mph from North

Location: Bishop International Airport

Current Time: Apr 26, 2015 at 5:54:35 PM

Latest Report: Apr 26, 2015 at 4:53 PM


Visibility: 10 mi

Pressure: 29.93 "Hg

Humidity: 35%

Dew point: 30 °F

Location of FlintLocation

Historic Weather in Flint — Graph

°F

Flint temperature yesterday

Maximum temperature yesterday: 56 °F (at 2:53 PM)
Minimum temperature yesterday: 38 °F (at 1:53 AM)
Average temperature yesterday: 45 °F

Past Weeks' High & Low Weather Summary

 TemperatureHumidityPressure
High77 °F (Apr 17, 2:53 PM)90% (Apr 20, 5:53 AM)30.39 "Hg (Apr 20, 5:53 AM)
Low26 °F (Apr 24, 12:53 AM)19% (Apr 15, 2:53 PM)29.17 "Hg (Apr 20, 6:02 AM)
Average50 °F52%29.96 "Hg
* Reported Apr 11 4:53 PM — Apr 26 4:53 PM, Flint, Weather by CustomWeather, © 2015

Note: Actual official high and low records may vary slightly from our data, if they occured in-between our weather recording intervals... More about our weather records

Advertising

Flint weather history for previous 24 hours

 ConditionsComfort  
Time TempWeatherWind HumidityBarometerVisibility
4:53 PM
Sun, Apr 26
58 °FScattered clouds.12 mph35%29.93 "Hg10 mi
3:53 PM57 °FSunny.14 mph33%29.94 "Hg10 mi
2:53 PM58 °FSunny.15 mph33%29.95 "Hg10 mi
1:53 PM57 °FScattered clouds.14 mph37%29.94 "Hg10 mi
12:53 PM56 °FScattered clouds.8 mph36%29.95 "Hg10 mi
11:53 AM54 °FSunny.10 mph37%29.95 "Hg10 mi
10:53 AM52 °FSunny.10 mph40%29.96 "Hg10 mi
9:53 AM49 °FSunny.7 mph46%29.96 "Hg10 mi
8:53 AM45 °FSunny.7 mph56%29.96 "Hg10 mi
7:53 AM37 °FPassing clouds.3 mph73%29.95 "Hg10 mi
6:53 AM31 °FClear.3 mph76%29.94 "Hg10 mi
5:53 AM32 °FClear.No wind69%29.91 "Hg10 mi
4:53 AM32 °FClear.3 mph69%29.90 "Hg10 mi
3:53 AM36 °FClear.5 mph59%29.89 "Hg10 mi
2:53 AM36 °FClear.7 mph59%29.89 "Hg10 mi
1:53 AM36 °FClear.7 mph59%29.88 "Hg10 mi
12:53 AM38 °FClear.8 mph58%29.88 "Hg10 mi
11:53 PM
Sat, Apr 25
39 °FClear.9 mph55%29.88 "Hg10 mi
10:53 PM42 °FClear.12 mph51%29.88 "Hg10 mi
9:53 PM45 °FPassing clouds.13 mph45%29.86 "Hg10 mi
8:53 PM47 °FOvercast.12 mph42%29.86 "Hg10 mi
7:53 PM48 °FPartly sunny.15 mph39%29.85 "Hg10 mi
6:53 PM51 °FSunny.14 mph31%29.83 "Hg10 mi
5:53 PM53 °FSunny.12 mph26%29.84 "Hg10 mi
Weather by CustomWeather, © 2015

See weather overviewHow to use our weather pages